Location: Unspecified
(0.0000°N, 0.0000°E)
Time: 20:13:59
(UTC+00:00)

USA 200 - Pass Details

Date: 14 June 2023
Orbit: 1801 x 38554 km, 63.7° (Epoch: 28 February)

Event Time Altitude Azimuth Distance (km) Brightness Sun altitude
Rises 14:51:27 0° 228° (SW) 7,784 ? 42.4°
Reaches altitude 10° 14:55:00 10° 235° (SW) 7,620 ? 41.6°
Enters shadow 01:59:02 67° 266° (W) 7,249 ? -53.0°
